ELECTRON KICK STAGE R/B, 45111

Orbit data source: Space-Track

ELECTRON KICK STAGE R/B, 45111 is space debris in LEO originally from a launch on Fri, 31 Jan 2020 UTC launched from the Rocket Lab Launch Complex (RLLC). Debris objects in space refer to the collection of defunct objects orbiting the Earth. Examples of debris include non-operational satellites, rocket bodies, and fragments generated from explosions, collisions, or faulty payload assembly.

Loading next visibility...
Identifier
45111, 2020-007B
Orbit
LEO
Last TLE update
6 hours ago
Origin
Manufacturer
Rocket Lab
Mission
Spacecraft
Bus & Motor
KICK STAGE, CURIE
Mass
40 kg wet, 40 kg dry
Launch date (UTC)
2020-01-31 (5 years ago)
Launch vehicle
Unknown
Launch site
Rocket Lab Launch Complex (RLLC)
Object type
Payload
Rocket body
Debris
Shape & HBR
Trunc Cone, 1.4 m
Radar Cross Section
0.760 m², Medium (>0.1 m² and < 1m²)

Expand to show TLE details & history

TLE from 6 hours ago
0 ELECTRON KICK STAGE R/B
1 45111U 20007B   25182.17818332  .00025241  00000-0  66112-3 0  9995
2 45111  69.9829 152.7154 0008915 183.5861 176.5256 15.38592637 62871
Epoch: 2025-07-01T04:16Z
TLE epoch observation values (Epoch: 2025-07-01T04:16:35.038Z)
Latitude
-0.00008°
Longitude
169.09201°
Altitude
458.813 km
Speed
7.634 km/s
True Right ascension
10h 10m 51s
True Declination
0° 00' 00"
Sunlit
Object was in daylight at epoch
Visualization orbit readout
Latitude
-55.64457°
Longitude
20.4573°
Altitude
467.987 km
Speed
7.633 km/s
Apparent Right ascension
06h 09m 44s
Apparent Declination
-72° 11' 56"
Sunlit
Object is in full shadow
Visualization observer readout
Local Sidereal Time
21:38:29
Azimuth
158.399° S
Elevation
-48.999°
Doppler factor
1
Orbital elements
Apogee altitude
454.269 km
Perigee altitude
442.098 km
Semi-major axis
6,826.321 km
Eccentricity
0.00089
Inclination
69.9829°
RAAN
152.7154°
Arg. of periapsis
183.5861°
True anomaly
Unknown
Mean anomaly
176.5256°
Eccentric anomaly
Unknown
Mean motion
3.84825 °/min
Orbital period
93.55 mins
BSTAR
0.00066112
Loading maneuver chart data...
Loading SW <> Apogee altitude chart data...
Loading historical data...
Loading historical data...
Loading historical data...
Loading historical data...
Loading historical data...
Loading historical data...
Loading historical data...
Other satellites on launch #7 in the year 2020 (2020-01-31 UTC)

ELECTRON KICK STAGE R/B Visibility forecast

Observer location: undefined°, undefined°

Span
Click to sort rows by Start time (UTC) header in descending order
Start Az.
Max El. time (UTC)
Max El. Az.
Max El.
End time (UTC)
End Az.
5 mins2025-07-01 23:08:07.119Z179.301° S2025-07-01 23:11:07.119Z91.814° ESE34.009°2025-07-01 23:13:07.119Z43.923° NE
5 mins2025-07-02 08:55:07.119Z344.552° N2025-07-02 08:57:07.119Z61.451° ENE43.214°2025-07-02 09:00:07.119Z148.482° SSE
|